Starlink 2651

operational
NORAD ID: 48654 Int'l Des: 2021-044 Owner: SPXS Country: US Constellation: starlink
LEOCIRCULARSTARLINK_TYPE

Starlink 2651について

説明を読み込み中...

リアルタイム位置

3D地球を読み込み中...

次回通過

高度履歴

Altitude vs Time

uPlot chart will show altitude changes over time

軌道要素

1 48654U 21044S 25258.58341435 .00051441 00000-0 29624-2 0 9993
2 48654 53.0534 187.6679 0000943 95.6684 266.8911 15.11941562 5741
Epoch: Sep 15, 2025 • Age: 11 hours

現在のステータス

高度 535.9 km
速度 7.60 km/s
衛星直下点 52.45°N, 114.9°W
打ち上げ日 May 26, 2021
運用期間 4.3 years
タイプ internet

技術仕様

分類 Payload
質量 260.00 kg
乾燥質量 248.00 kg
総質量 260.00 kg
長さ 0.20 m
直径 2.80 m
スパン 9.00 m
形状 Box + pan
製造者 SPXS
バスタイプ Starlink
フェーズステータス In Orbit
所有者/国 SPXS/US

大規模コンステレーション

Loading constellations...